Location: Korczew
(51.3586°N, 19.4491°E)
Time: 22:57:22
(UTC+00:00)

NOSS 2-1 (C) - Pass Details

Date: 19 May 2025
Orbit: 378 x 1699 km, 63.3° (Epoch: 16 June)

Event Time Altitude Azimuth Distance (km) Brightness Sun altitude
Exits shadow 21:09:54 23° 99° (E) 935 4.2 -16.1°
Drops below altitude 10° 21:11:41 10° 67° (ENE) 1,433 5.5 -16.2°
Sets 21:13:47 0° 53° (NE) 2,261 6.7 -16.3°
